SCP
1 2 2 1 0 0 0 0 0 0 0 0 0 0 0 0 0 0 0 0 0 0
2 1 1 0 0 0 0 0 0 0 0 0 0 0 0 0 0 0 0 0 0 0
2 1 0 0 0 0 0 0 0 0 0 0 0 0 0 0 0 0 0 0 0 0
1 0 0 0 0 0 0 0 0 0 0 0 0 0 0 0 0 0 0 0 0 0
0 0 0 0 0 0 0 0 0 0 0 0 0 0 0 0 0 0 0 0 0 0
0 0 0 0 0 0 0 0 0 0 0 0 0 0 0 0 0 0 0 0 0 0
1 0 0 0 0 0 0 0 0 0 0 0 0 0 0 0 0 0 0 0 0 0
0 0 0 0 0 0 0 0 0 0 0 0 0 0 0 0 0 0 0 0 0 0
0 0 0 0 0 0 0 0 0 0 0 0 0 0 0 0 0 0 0 0 0 0
0 0 0 0 0 0 0 0 0 0 0 0 0 0 0 0 0 0 0 0 0 0
0 0 0 0 0 0 0 0 0 0 0 0 0 0 0 0 0 0 0 0 0 0
0 0 0 0 0 0 0 0 0 0 0 0 0 0 0 0 0 0 0 0 0 0
0 0 0 0 0 0 0 0 0 0 0 0 0 0 0 0 0 0 0 0 0 0
0 0 0 0 0 0 0 0 0 0 0 0 0 0 0 0 0 0 0 0 0 0
Wind_Speed_500mb
89 88 79 79 72 70 72 64 52 41 32 29 26 29 28 22 17 13 11 8 3 2
92 84 86 80 78 76 76 68 55 38 33 31 37 29 24 20 14 13 10 6 3 4
94 91 83 77 79 84 74 64 47 35 38 45 35 28 26 21 16 11 12 8 4 6
90 92 79 78 75 75 68 45 39 37 52 43 34 32 28 22 18 16 18 15 11 10
88 84 79 75 82 71 41 36 41 56 52 40 37 34 26 24 24 20 17 15 8 8
82 84 82 75 82 55 47 44 54 57 50 46 42 34 28 25 26 21 17 13 7 9
86 86 79 82 59 57 52 61 65 58 52 49 43 36 31 29 25 18 14 9 6 11
94 92 85 66 60 69 74 71 71 64 56 50 43 37 35 30 22 14 11 9 15 17
98 93 76 88 93 92 88 79 72 66 61 51 41 37 33 24 19 15 14 16 18 18
117 110 94 97 103 96 88 82 75 68 59 53 49 39 28 22 22 20 20 20 19 21
128 119 123 129 108 96 88 81 77 71 62 58 48 34 30 28 26 22 24 25 25 25
138 142 130 114 104 97 90 82 78 65 61 55 51 36 31 27 25 25 28 26 26 26
137 139 107 99 102 97 85 82 70 66 59 53 53 37 30 23 25 29 31 30 27 29
134 125 112 115 103 95 90 78 74 69 62 56 49 40 29 22 23 28 33 28 28 25
Wind_Direction_500mb
214 215 213 211 203 202 202 197 200 205 206 199 188 170 169 176 176 185 192 196 186 114
206 210 212 208 210 204 195 193 194 196 194 185 167 168 172 170 175 175 171 160 165 65
208 209 217 216 210 190 185 185 184 185 182 169 169 171 168 168 160 172 156 142 146 114
208 212 217 218 204 182 177 180 182 183 169 168 166 168 167 155 144 151 132 127 113 95
205 203 211 213 188 184 182 204 187 173 168 167 169 165 158 150 146 142 134 115 98 81
195 197 197 189 180 174 184 201 177 172 169 168 165 164 158 157 150 145 133 109 74 37
188 193 183 180 176 177 190 191 177 171 170 168 170 165 161 163 157 148 125 103 38 29
194 192 187 180 172 182 192 183 174 169 170 168 166 165 165 162 147 135 115 76 51 48
184 178 186 189 186 183 175 172 168 167 167 158 157 163 165 158 142 128 98 74 69 70
178 175 170 187 177 166 169 167 164 161 159 157 158 163 161 151 133 123 98 85 88 80
175 175 185 175 163 164 164 164 159 159 160 159 152 160 154 142 129 111 101 99 86 84
174 170 164 160 155 160 161 160 158 158 159 157 146 153 146 138 126 124 116 106 96 80
169 163 155 160 157 159 161 157 156 155 155 152 141 148 142 132 130 125 116 107 91 75
155 151 157 157 157 160 160 151 154 152 149 147 147 147 142 133 128 125 119 107 89 75
Wind_Speed_850mb
89 88 79 79 72 70 72 64 52 41 32 29 26 29 28 22 17 13 11 8 3 2
92 84 86 80 78 76 76 68 55 38 33 31 37 29 24 20 14 13 10 6 3 4
94 91 83 77 79 84 74 64 47 35 38 45 35 28 26 21 16 11 12 8 4 6
90 92 79 78 75 75 68 45 39 37 52 43 34 32 28 22 18 16 18 15 11 10
88 84 79 75 82 71 41 36 41 56 52 40 37 34 26 24 24 20 17 15 8 8
82 84 82 75 82 55 47 44 54 57 50 46 42 34 28 25 26 21 17 13 7 9
86 86 79 82 59 57 52 61 65 58 52 49 43 36 31 29 25 18 14 9 6 11
94 92 85 66 60 69 74 71 71 64 56 50 43 37 35 30 22 14 11 9 15 17
98 93 76 88 93 92 88 79 72 66 61 51 41 37 33 24 19 15 14 16 18 18
117 110 94 97 103 96 88 82 75 68 59 53 49 39 28 22 22 20 20 20 19 21
128 119 123 129 108 96 88 81 77 71 62 58 48 34 30 28 26 22 24 25 25 25
138 142 130 114 104 97 90 82 78 65 61 55 51 36 31 27 25 25 28 26 26 26
137 139 107 99 102 97 85 82 70 66 59 53 53 37 30 23 25 29 31 30 27 29
134 125 112 115 103 95 90 78 74 69 62 56 49 40 29 22 23 28 33 28 28 25
Wind_Direction_850mb
214 215 213 211 203 202 202 197 200 205 206 199 188 170 169 176 176 185 192 196 186 114
206 210 212 208 210 204 195 193 194 196 194 185 167 168 172 170 175 175 171 160 165 65
208 209 217 216 210 190 185 185 184 185 182 169 169 171 168 168 160 172 156 142 146 114
208 212 217 218 204 182 177 180 182 183 169 168 166 168 167 155 144 151 132 127 113 95
205 203 211 213 188 184 182 204 187 173 168 167 169 165 158 150 146 142 134 115 98 81
195 197 197 189 180 174 184 201 177 172 169 168 165 164 158 157 150 145 133 109 74 37
188 193 183 180 176 177 190 191 177 171 170 168 170 165 161 163 157 148 125 103 38 29
194 192 187 180 172 182 192 183 174 169 170 168 166 165 165 162 147 135 115 76 51 48
184 178 186 189 186 183 175 172 168 167 167 158 157 163 165 158 142 128 98 74 69 70
178 175 170 187 177 166 169 167 164 161 159 157 158 163 161 151 133 123 98 85 88 80
175 175 185 175 163 164 164 164 159 159 160 159 152 160 154 142 129 111 101 99 86 84
174 170 164 160 155 160 161 160 158 158 159 157 146 153 146 138 126 124 116 106 96 80
169 163 155 160 157 159 161 157 156 155 155 152 141 148 142 132 130 125 116 107 91 75
155 151 157 157 157 160 160 151 154 152 149 147 147 147 142 133 128 125 119 107 89 75